Regional Weather Roundup
Issued by NWS

Home | Current Version | Previous Version | Text Only | Print | Product List | Glossary Off
Versions: 1 2 3 4 5 6 7 8 9 10 11 12 13 14 15 16 17 18 19 20 21 22 23 24 25 26 27 28 29 30 31 32 33 34 35 36 37 38 39 40 41 42 43 44 45 46 47 48 49 50

000
ASUS43 KLOT 300212
RWRIL

ILLINOIS REGIONAL WEATHER ROUNDUP
NATIONAL WEATHER SERVICE CHICAGO/ROMEOVILLE IL
900 PM CDT FRI MAY 29 2015

NOTE: "FAIR" INDICATES FEW OR NO CLOUDS BELOW 12,000 FEET WITH NO
SIGNIFICANT WEATHER AND/OR OBSTRUCTIONS TO VISIBILITY.

* THESE STATIONS ARE NOT UNDER NWS QUALITY CONTROL. THEY ALSO MAY NOT
  REPORT WEATHER SUCH AS PRECIPITATION OR FOG.

ILZ001-002-007-009-015-016-024-300300-
NORTHWEST ILLINOIS

CITY           SKY/WX    TMP DP  RH WIND       PRES   REMARKS
MOLINE         CLOUDY    72  65  78 CALM      29.93R
STERLING*      CLOUDY    73  63  68 W6        29.93S
SAVANNA*       CLOUDY    73  64  73 S3        29.91S
$$

ILZ003-004-008-010-011-017-018-300300-
NORTH CENTRAL ILLINOIS

CITY           SKY/WX    TMP DP  RH WIND       PRES   REMARKS
ROCKFORD       CLOUDY    69  67  93 S3        29.93R
FREEPORT*      CLOUDY    70  67  90 SW8       29.93S
ROCHELLE*      CLOUDY    72  66  82 CALM      29.93S
DE KALB*       CLOUDY    70  63  80 CALM      29.94S
PERU*          CLOUDY    76  64  66 SW6       29.93S
$$

ILZ005-006-012>014-019>023-300300-
NORTHEAST ILLINOIS

CITY           SKY/WX    TMP DP  RH WIND       PRES   REMARKS
CHICAGO-OHARE  MOCLDY    77  63  61 SW6       29.91S
CHICAGO-MIDWAY MOCLDY    78  67  68 S10G21    29.92S HX  80
AURORA         CLOUDY    76  63  64 SW7       29.93R
LANSING*       MOCLDY    72  62  71 S8        29.95S
JOLIET*        CLOUDY    77  69  75 SW7       29.94S
WAUKEGAN       MOCLDY    75  63  66 SW5       29.90S
DUPAGE AIRPORT CLOUDY    77  64  64 SW9       29.92S
KANKAKEE*      CLOUDY    70  67  89 SW9       29.97R
WHEELING       MOCLDY    77  64  64 S5        29.93R
MORRIS*        CLOUDY    74  67  77 SW10      29.93S
ROMEOVILLE*    CLOUDY    75  65  71 SW14      29.93S
NORTHERLY ISL    N/A     77  64  64 S8          N/A
$$

LMZ740>746-300300-
SOUTHERN LAKE MICHIGAN

STATION/POSITION SKY/WX   TEMP    WIND        PRES    VSBY  WAVE
                          AIR SEA DIR/SP/G                  HT/PER
                          (F)     (DEG/KT/KT) (MB)    (MI)  (FT/S)
SOUTHERN BUOY              46 38  210/  6/  6 1013.3R         0
HARRISON CRIB              79     220/ 14/ 18   N/A
BURNHAM HARBOR             77     190/ 10/ 15   N/A
CALUMET HARBOR             74     210/  7/ 11   N/A
BURNS HARBOR               68     270/ 13     1014.2
MICHIGAN CITY                     100/  1/  2   N/A
MICHIGAN CITY 6N           63 56  200/  6/ 10   N/A           1
ST. JOSEPH                 64 58  200/  4/ 14   N/A           1/ 3
$$

ILZ025>027-034>036-040-047-049-050-058-095>099-300300-
WEST-CENTRAL ILLINOIS

CITY           SKY/WX    TMP DP  RH WIND       PRES   REMARKS
QUINCY         CLOUDY    71  66  84 S6        29.97R
GALESBURG*     CLOUDY    71  64  78 SW7       29.96R
MACOMB*        CLOUDY    73  65  77 SW6       29.99R
JACKSONVILLE*  CLOUDY    75  66  75 SW3       29.98R
PITTSFIELD*    CLOUDY    72  67  82 SW5       30.00R
$$

ILZ028>032-037-038-041>044-048-051>054-059>061-300300-
CENTRAL ILLINOIS

CITY           SKY/WX    TMP DP  RH WIND       PRES   REMARKS
PONTIAC        CLOUDY    71  67  89 S10       29.96S
BLOOMINGTON    CLOUDY    68  66  93 S8        29.99S
DECATUR        CLOUDY    71  65  81 SW5       30.00R
PEORIA         CLOUDY    74  66  76 S10       29.95S
LACON*         CLOUDY    74  65  72 S7        29.94R
LINCOLN*       CLOUDY    70  67  90 S6        29.96S
SPRINGFIELD    CLOUDY    73  69  87 S8        29.98S
TAYLORVILLE    CLOUDY    70  66  88 S7        30.00S
$$

ILZ033-039-045-046-055>057-062-063-300300-
EAST-CENTRAL ILLINOIS

CITY           SKY/WX    TMP DP  RH WIND       PRES   REMARKS
CHAMPAIGN      LGT RAIN  71  66  84 SW3       30.00S
DANVILLE*      CLOUDY    75  62  62 W13G23    29.98R
RANTOUL*       CLOUDY    70  68  92 CALM      29.99S
MATTOON        LGT RAIN  70  67  90 S7        30.00S
PARIS*         MOCLDY    74  64  69 W8        30.02R
$$

ILZ079-100>102-300300-
SOUTHWEST ILLINOIS

CITY           SKY/WX    TMP DP  RH WIND       PRES   REMARKS
BELLEVILLE     DRIZZLE   68  68 100 SE3       29.99S
CAHOKIA*       CLOUDY    72  68  87 SE5       29.98S
SPARTA*        RAIN      67  66  94 SE8       30.03R
$$

ILZ064>066-069>071-074>076-080>082-084>086-088>090-092>094-300300-
SOUTH-CENTRAL ILLINOIS

CITY           SKY/WX    TMP DP  RH WIND       PRES   REMARKS
CARBONDALE     MOCLDY    72  66  81 NE10      30.01R
CAIRO*         MOCLDY    79  69  72 SE5       30.00R HX  81
EFFINGHAM*     RAIN      68  64  89 SE8       30.04R
MARION         MOCLDY    73  68  83 NE7       30.03R
MT. VERNON     MOCLDY    68  63  83 NE3       30.04S
CENTRALIA*     CLOUDY    67  65  94 E3        30.02S
SALEM*         RAIN      69  66  91 E5        30.03S
METROPOLIS*    MOCLDY    78  69  73 CALM      30.01R HX  80
$$

ILZ067-068-072-073-078-083-087-091-300300-
SOUTHEAST ILLINOIS

CITY           SKY/WX    TMP DP  RH WIND       PRES   REMARKS
LAWRENCEVILLE  PTCLDY    77  66  68 S8        30.03R
FLORA*         LGT RAIN  67  65  94 CALM      30.06R
FAIRFIELD*     CLOUDY    70  66  87 CALM      30.04R
HARRISBURG*    CLEAR     76  68  77 E3        30.03S
ROBINSON*      MOCLDY    75  64  67 W7        30.03R
CARMI*         MOCLDY    73  61  64 NW8       30.03R
$$

ABBREVIATIONS USED IN REMARKS
   TC - TEMPERATURE IN CELSIUS
  WCI - WIND CHILL INDEX
   HX - HEAT INDEX
  VSB - VISIBILITY
$$




USA.gov is the U.S. government's official web portal to all federal, state and local government web resources and services.